| time (UTC) | temp C | wind direction | speed KPH | gust KPH | rain 1hr cm | rain 24hr cm | rain mn cm | humidity % | barometer mb |
| 20260831050010 | 12 | 117 | 4.8 | 9.7 | 0.00 | 0.94 | 0.94 | 46 | 1017.9 |
| 20260831044513 | 12 | 110 | 4.8 | 9.7 | 0.00 | 0.94 | 0.94 | 46 | 1017.8 |
| 20260831043020 | 12 | 115 | 3.2 | 4.8 | 0.00 | 0.94 | 0.94 | 47 | 1017.6 |
| 20260831041602 | 12 | 109 | 4.8 | 6.4 | 0.00 | 0.94 | 0.94 | 41 | 1017.4 |
| 20260831040007 | 13 | 107 | 3.2 | 6.4 | 0.00 | 0.94 | 0.94 | 41 | 1017.2 |
| 20260831034508 | 13 | 115 | 1.6 | 3.2 | 0.00 | 0.97 | 0.94 | 40 | 1017.2 |
| 20260831033022 | 12 | 119 | 3.2 | 6.4 | 0.00 | 0.99 | 0.94 | 44 | 1017.0 |
| 20260831031523 | 13 | 129 | 3.2 | 4.8 | 0.00 | 0.99 | 0.94 | 41 | 1016.8 |
| 20260831030029 | 12 | 103 | 0.0 | 0.0 | 0.00 | 0.99 | 0.94 | 44 | 1016.5 |
| 20260831024509 | 13 | 91 | 0.0 | 0.0 | 0.00 | 0.99 | 0.94 | 42 | 1016.2 |
| 20260831023013 | 13 | 70 | 0.0 | 0.0 | 0.00 | 0.99 | 0.94 | 41 | 1016.0 |
| 20260831021532 | 14 | 88 | 0.0 | 1.6 | 0.00 | 0.99 | 0.94 | 40 | 1015.9 |
| 20260831020026 | 16 | 44 | 0.0 | 1.6 | 0.00 | 0.99 | 0.94 | 41 | 1015.7 |
| 20260831014530 | 17 | 42 | 0.0 | 4.8 | 0.00 | 0.99 | 0.94 | 39 | 1015.7 |
| 20260831013010 | 18 | 36 | 1.6 | 6.4 | 0.00 | 0.99 | 0.94 | 34 | 1015.8 |
| 20260831011528 | 18 | 5 | 4.8 | 8.0 | 0.00 | 0.99 | 0.94 | 31 | 1015.8 |
| 20260831010024 | 19 | 328 | 4.8 | 9.7 | 0.00 | 1.02 | 0.94 | 30 | 1015.8 |
| 20260831004531 | 19 | 348 | 8.0 | 17.7 | 0.00 | 1.14 | 0.94 | 27 | 1015.9 |
| 20260831003035 | 20 | 317 | 8.0 | 17.7 | 0.00 | 1.19 | 0.94 | 29 | 1016.0 |
| 20260831001515 | 20 | 360 | 12.9 | 24.1 | 0.00 | 1.19 | 0.94 | 29 | 1016.0 |
| 20260831000031 | 20 | 341 | 1.6 | 9.7 | 0.00 | 1.19 | 0.94 | 34 | 1015.9 |
| 20260830234528 | 20 | 360 | 3.2 | 6.4 | 0.00 | 1.22 | 0.94 | 36 | 1016.1 |
| 20260830233034 | 20 | 47 | 3.2 | 12.9 | 0.00 | 1.24 | 0.94 | 35 | 1016.0 |
| 20260830231530 | 19 | 321 | 1.6 | 12.9 | 0.00 | 1.24 | 0.94 | 38 | 1016.0 |
| 20260830230020 | 19 | 323 | 6.4 | 16.1 | 0.00 | 1.24 | 0.94 | 39 | 1016.1 |
| 20260830224527 | 18 | 309 | 3.2 | 14.5 | 0.00 | 1.24 | 0.94 | 39 | 1016.0 |
| 20260830223008 | 18 | 286 | 4.8 | 16.1 | 0.00 | 1.37 | 0.94 | 44 | 1016.1 |
| 20260830221510 | 18 | 360 | 4.8 | 14.5 | 0.00 | 1.37 | 0.94 | 45 | 1016.1 |
| 20260830220014 | 18 | 325 | 4.8 | 16.1 | 0.00 | 1.37 | 0.94 | 44 | 1016.3 |
| 20260830214517 | 18 | 13 | 6.4 | 12.9 | 0.00 | 1.37 | 0.94 | 45 | 1016.2 |
| 20260830213008 | 18 | 51 | 1.6 | 14.5 | 0.00 | 1.37 | 0.94 | 41 | 1016.4 |
| 20260830211510 | 17 | 327 | 6.4 | 17.7 | 0.00 | 1.37 | 0.94 | 48 | 1016.6 |
| 20260830210013 | 17 | 15 | 4.8 | 16.1 | 0.00 | 1.37 | 0.94 | 48 | 1016.8 |
| 20260830204512 | 17 | 346 | 4.8 | 16.1 | 0.00 | 1.37 | 0.94 | 49 | 1017.0 |
| 20260830203015 | 17 | 295 | 6.4 | 16.1 | 0.00 | 1.37 | 0.94 | 51 | 1017.2 |
| 20260830201507 | 16 | 25 | 3.2 | 16.1 | 0.00 | 1.37 | 0.94 | 54 | 1017.2 |
| 20260830200010 | 16 | 352 | 6.4 | 14.5 | 0.00 | 1.37 | 0.94 | 53 | 1017.2 |
| 20260830194520 | 16 | 325 | 3.2 | 14.5 | 0.00 | 1.37 | 0.94 | 55 | 1017.3 |
| 20260830193016 | 15 | 325 | 4.8 | 9.7 | 0.00 | 1.37 | 0.94 | 55 | 1017.4 |
| 20260830191520 | 15 | 360 | 6.4 | 14.5 | 0.00 | 1.37 | 0.94 | 56 | 1017.5 |
| 20260830190011 | 14 | 21 | 6.4 | 12.9 | 0.00 | 1.37 | 0.94 | 56 | 1017.5 |
| 20260830184523 | 14 | 13 | 1.6 | 8.0 | 0.00 | 1.37 | 0.94 | 57 | 1017.5 |
| 20260830183024 | 13 | 9 | 3.2 | 8.0 | 0.00 | 1.37 | 0.94 | 59 | 1017.9 |
| 20260830181521 | 13 | 285 | 3.2 | 12.9 | 0.00 | 1.37 | 0.94 | 59 | 1017.8 |
| 20260830180025 | 13 | 315 | 3.2 | 11.3 | 0.00 | 1.37 | 0.94 | 69 | 1018.0 |
| 20260830174514 | 12 | 360 | 1.6 | 11.3 | 0.00 | 1.37 | 0.94 | 73 | 1018.0 |
| 20260830173017 | 11 | 315 | 1.6 | 4.8 | 0.00 | 1.37 | 0.94 | 77 | 1018.0 |
| 20260830171524 | 10 | 74 | 1.6 | 3.2 | 0.00 | 1.37 | 0.94 | 75 | 1018.2 |
| 20260830170026 | 10 | 210 | 0.0 | 6.4 | 0.00 | 1.37 | 0.94 | 79 | 1018.1 |
| 20260830164524 | 10 | 208 | 4.8 | 9.7 | 0.00 | 1.37 | 0.94 | 82 | 1018.1 |
| 20260830163020 | 9 | 149 | 6.4 | 9.7 | 0.00 | 1.37 | 0.94 | 88 | 1018.0 |
| 20260830161530 | 8 | 192 | 8.0 | 11.3 | 0.00 | 1.37 | 0.94 | 88 | 1017.9 |
| 20260830160028 | 8 | 292 | 1.6 | 6.4 | 0.15 | 1.37 | 0.94 | 87 | 1017.5 |
| 20260830154527 | 8 | 352 | 0.0 | 6.4 | 0.53 | 1.37 | 0.94 | 91 | 1017.1 |
| 20260830153026 | 8 | 312 | 1.6 | 11.3 | 0.56 | 1.37 | 0.94 | 91 | 1016.9 |
| 20260830151517 | 9 | 352 | 0.0 | 3.2 | 0.56 | 1.37 | 0.94 | 92 | 1016.8 |
| 20260830150028 | 8 | 292 | 0.0 | 6.4 | 0.41 | 1.22 | 0.79 | 92 | 1017.0 |
| 20260830144534 | 9 | 248 | 16.1 | 22.5 | 0.03 | 0.84 | 0.41 | 90 | 1017.7 |
| 20260830143030 | 9 | 291 | 0.0 | 6.4 | 0.00 | 0.81 | 0.38 | 90 | 1016.1 |
| 20260830141530 | 10 | 298 | 9.7 | 14.5 | 0.00 | 0.81 | 0.38 | 89 | 1016.1 |
| 20260830140024 | 9 | 340 | 4.8 | 12.9 | 0.00 | 0.81 | 0.38 | 89 | 1015.5 |
| 20260830134535 | 9 | 18 | 1.6 | 6.4 | 0.00 | 0.81 | 0.38 | 90 | 1015.4 |
| 20260830133008 | 9 | 36 | 3.2 | 8.0 | 0.00 | 0.81 | 0.38 | 91 | 1015.5 |
| 20260830131513 | 9 | 57 | 1.6 | 8.0 | 0.00 | 0.81 | 0.38 | 91 | 1015.6 |
| 20260830130020 | 10 | 32 | 1.6 | 8.0 | 0.03 | 0.81 | 0.38 | 89 | 1015.4 |
| 20260830124530 | 11 | 167 | 1.6 | 16.1 | 0.05 | 0.84 | 0.38 | 87 | 1015.4 |
| 20260830123019 | 11 | 157 | 17.7 | 37.0 | 0.23 | 0.84 | 0.38 | 88 | 1014.7 |
| 20260830121531 | 10 | 150 | 16.1 | 25.7 | 0.38 | 0.84 | 0.38 | 91 | 1014.5 |
| 20260830120016 | 10 | 171 | 14.5 | 17.7 | 0.36 | 0.81 | 0.36 | 89 | 1015.2 |
| 20260830114524 | 8 | 215 | 1.6 | 12.9 | 0.33 | 0.79 | 0.33 | 88 | 1014.4 |
| 20260830113032 | 10 | 89 | 3.2 | 19.3 | 0.15 | 0.64 | 0.15 | 89 | 1015.5 |
| 20260830111509 | 10 | 167 | 16.1 | 22.5 | 0.00 | 0.48 | 0.00 | 92 | 1016.0 |
| 20260830110013 | 10 | 188 | 4.8 | 9.7 | 0.00 | 0.51 | 0.00 | 90 | 1015.9 |
| 20260830104517 | 11 | 135 | 4.8 | 9.7 | 0.00 | 0.53 | 0.00 | 85 | 1015.8 |
| 20260830103028 | 11 | 312 | 1.6 | 3.2 | 0.00 | 0.53 | 0.00 | 86 | 1015.9 |
| 20260830101528 | 10 | 9 | 0.0 | 3.2 | 0.00 | 0.58 | 0.00 | 87 | 1015.5 |
| 20260830100011 | 10 | 15 | 3.2 | 12.9 | 0.00 | 0.61 | 0.00 | 87 | 1015.2 |
| 20260830094515 | 11 | 344 | 1.6 | 6.4 | 0.00 | 0.66 | 0.00 | 81 | 1014.9 |
| 20260830093027 | 12 | 33 | 0.0 | 3.2 | 0.00 | 0.76 | 0.00 | 79 | 1014.9 |
| 20260830091535 | 12 | 141 | 8.0 | 14.5 | 0.00 | 0.79 | 0.00 | 81 | 1014.5 |
| 20260830090006 | 12 | 150 | 9.7 | 12.9 | 0.00 | 0.81 | 0.00 | 81 | 1014.4 |
| 20260830084535 | 11 | 160 | 8.0 | 12.9 | 0.00 | 0.81 | 0.00 | 82 | 1014.5 |
| 20260830083021 | 12 | 196 | 1.6 | 3.2 | 0.00 | 0.81 | 0.00 | 80 | 1014.4 |
| 20260830081522 | 12 | 92 | 0.0 | 4.8 | 0.00 | 0.81 | 0.00 | 78 | 1014.6 |
| 20260830080030 | 12 | 63 | 1.6 | 4.8 | 0.00 | 0.81 | 0.00 | 76 | 1015.2 |
| 20260830074510 | 12 | 284 | 1.6 | 6.4 | 0.00 | 0.81 | 0.00 | 76 | 1015.4 |
| 20260830073018 | 11 | 131 | 3.2 | 9.7 | 0.00 | 0.81 | 0.00 | 77 | 1015.2 |
| 20260830071523 | 11 | 109 | 6.4 | 9.7 | 0.00 | 0.81 | 0.00 | 77 | 1015.0 |
| 20260830070027 | 11 | 148 | 4.8 | 6.4 | 0.00 | 0.81 | 0.00 | 81 | 1014.7 |
| 20260830064532 | 12 | 271 | 1.6 | 4.8 | 0.00 | 0.81 | 0.00 | 74 | 1014.3 |
| 20260830063017 | 11 | 119 | 3.2 | 4.8 | 0.00 | 0.81 | 0.00 | 78 | 1013.8 |
| 20260830061529 | 11 | 120 | 4.8 | 4.8 | 0.00 | 0.81 | 0.00 | 76 | 1013.7 |
| 20260830060029 | 12 | 207 | 0.0 | 3.2 | 0.00 | 0.81 | 0.00 | 74 | 1013.6 |
| 20260830054527 | 12 | 32 | 0.0 | 6.4 | 0.00 | 0.81 | 0.81 | 74 | 1013.1 |
| 20260830053029 | 12 | 107 | 3.2 | 4.8 | 0.00 | 0.81 | 0.81 | 76 | 1013.1 |
| 20260830051517 | 13 | 9 | 1.6 | 8.0 | 0.00 | 0.81 | 0.81 | 71 | 1013.2 |